| time (UTC) | temp C | wind direction | speed KPH | gust KPH | rain 1hr cm | rain 24hr cm | rain mn cm | humidity % | barometer mb |
| 20260505074122 | 12 | 160 | 0.0 | 0.0 | 0.00 | 0.00 | 0.00 | 90 | 1013.5 |
| 20260505073620 | 12 | 160 | 0.0 | 0.0 | 0.00 | 0.00 | 0.00 | 90 | 1013.6 |
| 20260505073118 | 12 | 144 | 0.0 | 0.0 | 0.00 | 0.00 | 0.00 | 90 | 1013.2 |
| 20260505072613 | 12 | 166 | 0.0 | 1.6 | 0.00 | 0.00 | 0.00 | 90 | 1012.9 |
| 20260505072110 | 12 | 130 | 0.0 | 1.6 | 0.00 | 0.00 | 0.00 | 90 | 1013.3 |
| 20260505071605 | 12 | 149 | 0.0 | 1.6 | 0.00 | 0.00 | 0.00 | 89 | 1013.1 |
| 20260505071103 | 13 | 149 | 0.0 | 0.0 | 0.00 | 0.00 | 0.00 | 89 | 1013.1 |
| 20260505070600 | 13 | 142 | 0.0 | 1.6 | 0.00 | 0.00 | 0.00 | 89 | 1013.2 |
| 20260505070056 | 13 | 141 | 0.0 | 1.6 | 0.00 | 0.00 | 0.00 | 88 | 1013.1 |
| 20260505065552 | 13 | 123 | 0.0 | 1.6 | 0.00 | 0.00 | 0.00 | 88 | 1013.1 |
| 20260505065049 | 13 | 199 | 0.0 | 1.6 | 0.00 | 0.00 | 0.00 | 88 | 1012.9 |
| 20260505064546 | 13 | 170 | 1.6 | 1.6 | 0.00 | 0.00 | 0.00 | 87 | 1013.0 |
| 20260505064045 | 13 | 133 | 0.0 | 0.0 | 0.00 | 0.00 | 0.00 | 87 | 1012.6 |
| 20260505063542 | 13 | 135 | 0.0 | 0.0 | 0.00 | 0.00 | 0.00 | 86 | 1012.7 |
| 20260505063037 | 13 | 150 | 0.0 | 0.0 | 0.00 | 0.00 | 0.00 | 86 | 1012.6 |
| 20260505062534 | 13 | 133 | 0.0 | 3.2 | 0.00 | 0.00 | 0.00 | 85 | 1012.4 |
| 20260505062031 | 14 | 119 | 0.0 | 1.6 | 0.00 | 0.00 | 0.00 | 85 | 1012.3 |
| 20260505061529 | 14 | 143 | 0.0 | 0.0 | 0.00 | 0.00 | 0.00 | 84 | 1012.3 |
| 20260505061027 | 14 | 137 | 0.0 | 0.0 | 0.00 | 0.00 | 0.00 | 83 | 1012.5 |
| 20260505060524 | 15 | 158 | 0.0 | 0.0 | 0.00 | 0.00 | 0.00 | 83 | 1012.2 |
| 20260505060020 | 15 | 169 | 0.0 | 0.0 | 0.00 | 0.00 | 0.00 | 82 | 1012.3 |
| 20260505055516 | 15 | 170 | 0.0 | 0.0 | 0.00 | 0.00 | 0.00 | 81 | 1012.1 |
| 20260505055013 | 15 | 170 | 0.0 | 0.0 | 0.00 | 0.00 | 0.00 | 80 | 1012.2 |
| 20260505054510 | 15 | 170 | 0.0 | 0.0 | 0.00 | 0.00 | 0.00 | 80 | 1011.8 |
| 20260505054008 | 15 | 44 | 1.6 | 1.6 | 0.00 | 0.00 | 0.00 | 79 | 1012.1 |
| 20260505053505 | 16 | 119 | 1.6 | 3.2 | 0.00 | 0.00 | 0.00 | 79 | 1011.9 |
| 20260505053001 | 16 | 147 | 0.0 | 0.0 | 0.00 | 0.00 | 0.00 | 78 | 1012.2 |
| 20260505052459 | 16 | 160 | 0.0 | 0.0 | 0.00 | 0.00 | 0.00 | 77 | 1012.1 |
| 20260505051956 | 16 | 124 | 0.0 | 0.0 | 0.00 | 0.00 | 0.00 | 77 | 1012.0 |
| 20260505051453 | 16 | 147 | 0.0 | 1.6 | 0.00 | 0.00 | 0.00 | 76 | 1011.8 |
| 20260505050951 | 17 | 113 | 0.0 | 3.2 | 0.00 | 0.00 | 0.00 | 75 | 1011.9 |
| 20260505050449 | 17 | 173 | 1.6 | 1.6 | 0.00 | 0.00 | 0.00 | 75 | 1011.8 |
| 20260505041416 | 18 | 231 | 1.6 | 3.2 | 0.00 | 0.00 | 0.00 | 70 | 1011.1 |
| 20260505040913 | 18 | 211 | 1.6 | 3.2 | 0.00 | 0.00 | 0.00 | 70 | 1011.1 |
| 20260505040411 | 18 | 175 | 0.0 | 3.2 | 0.00 | 0.00 | 0.00 | 69 | 1010.8 |
| 20260505035908 | 19 | 165 | 1.6 | 1.6 | 0.00 | 0.00 | 0.00 | 69 | 1010.7 |
| 20260505035404 | 19 | 312 | 1.6 | 3.2 | 0.00 | 0.00 | 0.00 | 68 | 1010.7 |
| 20260505034901 | 20 | 169 | 1.6 | 3.2 | 0.00 | 0.00 | 0.00 | 67 | 1010.7 |
| 20260505034357 | 20 | 32 | 1.6 | 4.8 | 0.00 | 0.00 | 0.00 | 68 | 1010.7 |
| 20260505033855 | 20 | 51 | 4.8 | 4.8 | 0.00 | 0.00 | 0.00 | 71 | 1010.7 |
| 20260505033351 | 21 | 157 | 0.0 | 0.0 | 0.00 | 0.00 | 0.00 | 72 | 1010.3 |
| 20260505032850 | 21 | 151 | 0.0 | 1.6 | 0.00 | 0.00 | 0.00 | 71 | 1010.3 |
| 20260505032346 | 21 | 189 | 0.0 | 3.2 | 0.00 | 0.00 | 0.00 | 70 | 1010.3 |
| 20260505031843 | 21 | 199 | 3.2 | 4.8 | 0.00 | 0.00 | 0.00 | 70 | 1010.2 |
| 20260505031339 | 21 | 190 | 1.6 | 8.0 | 0.00 | 0.00 | 0.00 | 70 | 1009.9 |
| 20260505030837 | 21 | 159 | 1.6 | 3.2 | 0.00 | 0.00 | 0.00 | 70 | 1009.9 |
| 20260505030332 | 21 | 128 | 0.0 | 1.6 | 0.00 | 0.00 | 0.00 | 70 | 1010.1 |
| 20260505025828 | 21 | 185 | 4.8 | 8.0 | 0.00 | 0.00 | 0.00 | 70 | 1010.0 |
| 20260505025326 | 21 | 229 | 3.2 | 4.8 | 0.00 | 0.00 | 0.00 | 70 | 1010.2 |
| 20260505024824 | 21 | 192 | 1.6 | 1.6 | 0.00 | 0.00 | 0.00 | 69 | 1009.8 |
| 20260505024322 | 21 | 196 | 4.8 | 8.0 | 0.00 | 0.00 | 0.00 | 69 | 1009.9 |
| 20260505023819 | 21 | 229 | 4.8 | 8.0 | 0.00 | 0.00 | 0.00 | 68 | 1009.7 |
| 20260505023315 | 22 | 189 | 3.2 | 4.8 | 0.00 | 0.00 | 0.00 | 67 | 1009.9 |
| 20260505022813 | 22 | 119 | 1.6 | 4.8 | 0.00 | 0.00 | 0.00 | 67 | 1009.9 |
| 20260505022310 | 21 | 242 | 1.6 | 9.7 | 0.00 | 0.00 | 0.00 | 67 | 1009.8 |
| 20260505021807 | 22 | 166 | 1.6 | 8.0 | 0.00 | 0.00 | 0.00 | 67 | 1009.8 |
| 20260505021303 | 22 | 188 | 4.8 | 4.8 | 0.00 | 0.00 | 0.00 | 66 | 1009.8 |
| 20260505020759 | 22 | 217 | 3.2 | 9.7 | 0.00 | 0.00 | 0.00 | 65 | 1010.1 |
| 20260505020255 | 22 | 200 | 4.8 | 8.0 | 0.00 | 0.00 | 0.00 | 64 | 1009.8 |
| 20260505015752 | 23 | 212 | 8.0 | 9.7 | 0.00 | 0.00 | 0.00 | 61 | 1009.9 |
| 20260505015249 | 23 | 184 | 3.2 | 4.8 | 0.00 | 0.00 | 0.00 | 62 | 1009.8 |
| 20260505014746 | 23 | 141 | 1.6 | 3.2 | 0.00 | 0.00 | 0.00 | 62 | 1009.8 |
| 20260505014243 | 23 | 128 | 1.6 | 8.0 | 0.00 | 0.00 | 0.00 | 62 | 1009.9 |
| 20260505013739 | 23 | 190 | 3.2 | 8.0 | 0.00 | 0.00 | 0.00 | 62 | 1009.8 |
| 20260505013237 | 23 | 137 | 1.6 | 4.8 | 0.00 | 0.00 | 0.00 | 62 | 1009.8 |
| 20260505012735 | 23 | 161 | 3.2 | 8.0 | 0.00 | 0.00 | 0.00 | 61 | 1009.9 |
| 20260505012232 | 23 | 127 | 0.0 | 4.8 | 0.00 | 0.00 | 0.00 | 62 | 1010.0 |
| 20260505011728 | 23 | 186 | 4.8 | 8.0 | 0.00 | 0.00 | 0.00 | 61 | 1010.0 |
| 20260505011225 | 23 | 299 | 1.6 | 9.7 | 0.00 | 0.00 | 0.00 | 62 | 1010.0 |
| 20260505010721 | 23 | 209 | 6.4 | 9.7 | 0.00 | 0.00 | 0.00 | 60 | 1010.2 |
| 20260505010217 | 23 | 199 | 4.8 | 8.0 | 0.00 | 0.00 | 0.00 | 59 | 1010.1 |
| 20260505005714 | 24 | 205 | 4.8 | 8.0 | 0.00 | 0.00 | 0.00 | 59 | 1010.1 |
| 20260505005211 | 23 | 155 | 0.0 | 4.8 | 0.00 | 0.00 | 0.00 | 59 | 1010.3 |
| 20260505004708 | 23 | 149 | 1.6 | 8.0 | 0.00 | 0.00 | 0.00 | 59 | 1010.1 |
| 20260505004204 | 23 | 274 | 4.8 | 4.8 | 0.00 | 0.00 | 0.00 | 58 | 1010.2 |
| 20260505003702 | 24 | 284 | 1.6 | 3.2 | 0.00 | 0.00 | 0.00 | 57 | 1010.1 |
| 20260505003200 | 23 | 225 | 4.8 | 8.0 | 0.00 | 0.00 | 0.00 | 56 | 1010.2 |
| 20260505002655 | 24 | 111 | 3.2 | 8.0 | 0.00 | 0.00 | 0.00 | 56 | 1010.2 |
| 20260505002153 | 24 | 196 | 3.2 | 3.2 | 0.00 | 0.00 | 0.00 | 57 | 1010.0 |
| 20260505001650 | 24 | 151 | 4.8 | 8.0 | 0.00 | 0.00 | 0.00 | 55 | 1010.3 |
| 20260505001148 | 24 | 218 | 4.8 | 9.7 | 0.00 | 0.00 | 0.00 | 55 | 1010.3 |
| 20260505000644 | 25 | 287 | 3.2 | 4.8 | 0.00 | 0.00 | 0.00 | 55 | 1010.4 |
| 20260505000143 | 23 | 115 | 3.2 | 4.8 | 0.00 | 0.00 | 0.00 | 55 | 1010.4 |
| 20260504235638 | 24 | 275 | 3.2 | 4.8 | 0.00 | 0.00 | 0.00 | 57 | 1010.4 |
| 20260504235135 | 23 | 323 | 3.2 | 8.0 | 0.00 | 0.00 | 0.00 | 55 | 1010.4 |
| 20260504234633 | 23 | 175 | 3.2 | 8.0 | 0.00 | 0.00 | 0.00 | 55 | 1010.2 |
| 20260504234130 | 23 | 139 | 1.6 | 3.2 | 0.00 | 0.00 | 0.00 | 55 | 1010.5 |
| 20260504233625 | 23 | 196 | 1.6 | 4.8 | 0.00 | 0.00 | 0.00 | 55 | 1010.6 |
| 20260504233121 | 23 | 206 | 1.6 | 3.2 | 0.00 | 0.00 | 0.00 | 55 | 1010.7 |
| 20260504232620 | 23 | 225 | 1.6 | 4.8 | 0.00 | 0.00 | 0.00 | 57 | 1010.6 |
| 20260504232116 | 23 | 234 | 1.6 | 4.8 | 0.00 | 0.00 | 0.00 | 57 | 1010.6 |
| 20260504231613 | 22 | 234 | 4.8 | 8.0 | 0.00 | 0.00 | 0.00 | 57 | 1010.4 |
| 20260504231109 | 22 | 238 | 1.6 | 4.8 | 0.00 | 0.00 | 0.00 | 57 | 1010.9 |
| 20260504230605 | 23 | 176 | 6.4 | 9.7 | 0.00 | 0.00 | 0.00 | 56 | 1010.8 |
| 20260504230104 | 22 | 188 | 4.8 | 4.8 | 0.00 | 0.00 | 0.00 | 58 | 1010.8 |
| 20260504225602 | 22 | 189 | 4.8 | 8.0 | 0.00 | 0.00 | 0.00 | 59 | 1011.0 |
| 20260504225058 | 22 | 176 | 1.6 | 3.2 | 0.00 | 0.00 | 0.00 | 58 | 1011.0 |
| 20260504224555 | 22 | 198 | 1.6 | 8.0 | 0.00 | 0.00 | 0.00 | 59 | 1011.1 |
| 20260504224052 | 22 | 86 | 4.8 | 9.7 | 0.00 | 0.00 | 0.00 | 59 | 1011.1 |
| 20260504223549 | 22 | 159 | 4.8 | 8.0 | 0.00 | 0.00 | 0.00 | 60 | 1011.2 |
| 20260504223044 | 22 | 266 | 4.8 | 8.0 | 0.00 | 0.00 | 0.00 | 58 | 1011.3 |
| 20260504222542 | 22 | 189 | 0.0 | 4.8 | 0.00 | 0.00 | 0.00 | 60 | 1011.3 |
| 20260504222039 | 22 | 115 | 1.6 | 8.0 | 0.00 | 0.00 | 0.00 | 60 | 1011.4 |
| 20260504221536 | 21 | 209 | 4.8 | 8.0 | 0.00 | 0.00 | 0.00 | 60 | 1011.4 |
| 20260504221033 | 21 | 295 | 8.0 | 12.9 | 0.00 | 0.00 | 0.00 | 60 | 1011.5 |
| 20260504220529 | 22 | 250 | 1.6 | 8.0 | 0.00 | 0.00 | 0.00 | 59 | 1011.6 |
| 20260504220026 | 21 | 228 | 3.2 | 11.3 | 0.00 | 0.00 | 0.00 | 61 | 1011.6 |
| 20260504215523 | 21 | 209 | 1.6 | 4.8 | 0.00 | 0.00 | 0.00 | 62 | 1011.5 |
| 20260504215020 | 20 | 166 | 3.2 | 8.0 | 0.00 | 0.00 | 0.00 | 64 | 1011.8 |
| 20260504214516 | 21 | 269 | 6.4 | 8.0 | 0.00 | 0.00 | 0.00 | 60 | 1011.7 |
| 20260504214012 | 21 | 183 | 3.2 | 8.0 | 0.00 | 0.00 | 0.00 | 61 | 1011.8 |
| 20260504213509 | 21 | 272 | 1.6 | 9.7 | 0.00 | 0.00 | 0.00 | 63 | 1011.9 |
| 20260504213007 | 20 | 275 | 4.8 | 9.7 | 0.00 | 0.00 | 0.00 | 64 | 1011.9 |
| 20260504212502 | 21 | 251 | 6.4 | 11.3 | 0.00 | 0.00 | 0.00 | 63 | 1011.9 |
| 20260504212000 | 20 | 113 | 1.6 | 8.0 | 0.00 | 0.00 | 0.00 | 64 | 1012.2 |
| 20260504211456 | 20 | 260 | 3.2 | 12.9 | 0.00 | 0.00 | 0.00 | 65 | 1012.0 |
| 20260504210954 | 20 | 183 | 1.6 | 8.0 | 0.00 | 0.00 | 0.00 | 66 | 1012.1 |
| 20260504210450 | 20 | 206 | 3.2 | 11.3 | 0.00 | 0.00 | 0.00 | 66 | 1012.4 |
| 20260504205947 | 19 | 228 | 3.2 | 4.8 | 0.00 | 0.00 | 0.00 | 68 | 1012.3 |
| 20260504205444 | 19 | 151 | 4.8 | 8.0 | 0.00 | 0.00 | 0.00 | 68 | 1012.5 |
| 20260504204943 | 19 | 117 | 4.8 | 9.7 | 0.00 | 0.00 | 0.00 | 68 | 1012.5 |
| 20260504204441 | 19 | 182 | 3.2 | 11.3 | 0.00 | 0.00 | 0.00 | 68 | 1012.6 |
| 20260504203940 | 20 | 254 | 4.8 | 9.7 | 0.00 | 0.00 | 0.00 | 67 | 1012.6 |
| 20260504203437 | 18 | 107 | 1.6 | 8.0 | 0.00 | 0.00 | 0.00 | 70 | 1012.7 |
| 20260504202933 | 18 | 164 | 1.6 | 4.8 | 0.00 | 0.00 | 0.00 | 68 | 1012.8 |
| 20260504202430 | 18 | 189 | 8.0 | 9.7 | 0.00 | 0.00 | 0.00 | 69 | 1012.8 |
| 20260504201926 | 18 | 153 | 4.8 | 8.0 | 0.00 | 0.00 | 0.00 | 69 | 1012.8 |
| 20260504201424 | 18 | 169 | 3.2 | 9.7 | 0.00 | 0.00 | 0.00 | 71 | 1012.7 |
| 20260504200921 | 18 | 192 | 4.8 | 8.0 | 0.00 | 0.00 | 0.00 | 70 | 1013.0 |
| 20260504200418 | 17 | 182 | 1.6 | 8.0 | 0.00 | 0.00 | 0.00 | 71 | 1012.9 |
| 20260504195915 | 18 | 152 | 4.8 | 8.0 | 0.00 | 0.00 | 0.00 | 71 | 1013.1 |
| 20260504195410 | 17 | 177 | 1.6 | 4.8 | 0.00 | 0.00 | 0.00 | 72 | 1013.1 |
| 20260504194907 | 17 | 225 | 4.8 | 8.0 | 0.00 | 0.00 | 0.00 | 73 | 1013.0 |
| 20260504194403 | 17 | 190 | 8.0 | 11.3 | 0.00 | 0.00 | 0.00 | 71 | 1013.0 |
| 20260504193859 | 17 | 203 | 3.2 | 8.0 | 0.00 | 0.00 | 0.00 | 72 | 1013.1 |
| 20260504193356 | 18 | 191 | 1.6 | 8.0 | 0.00 | 0.00 | 0.00 | 72 | 1013.1 |
| 20260504192855 | 17 | 155 | 3.2 | 9.7 | 0.00 | 0.00 | 0.00 | 72 | 1013.1 |
| 20260504192352 | 17 | 189 | 6.4 | 9.7 | 0.00 | 0.00 | 0.00 | 73 | 1013.3 |
| 20260504191850 | 17 | 118 | 8.0 | 9.7 | 0.00 | 0.00 | 0.00 | 74 | 1013.4 |
| 20260504191348 | 17 | 184 | 9.7 | 11.3 | 0.00 | 0.00 | 0.00 | 74 | 1013.3 |
| 20260504190843 | 16 | 287 | 1.6 | 11.3 | 0.00 | 0.00 | 0.00 | 76 | 1013.3 |
| 20260504190339 | 16 | 187 | 4.8 | 12.9 | 0.00 | 0.00 | 0.00 | 77 | 1013.3 |
| 20260504185836 | 16 | 229 | 4.8 | 9.7 | 0.00 | 0.00 | 0.00 | 76 | 1013.4 |
| 20260504185333 | 16 | 217 | 4.8 | 12.9 | 0.00 | 0.00 | 0.00 | 76 | 1013.3 |
| 20260504184829 | 16 | 98 | 1.6 | 8.0 | 0.00 | 0.00 | 0.00 | 77 | 1013.6 |
| 20260504184326 | 16 | 204 | 6.4 | 8.0 | 0.00 | 0.00 | 0.00 | 78 | 1013.5 |
| 20260504183821 | 16 | 196 | 4.8 | 9.7 | 0.00 | 0.00 | 0.00 | 78 | 1013.5 |
| 20260504183319 | 15 | 179 | 4.8 | 8.0 | 0.00 | 0.00 | 0.00 | 79 | 1013.6 |
| 20260504182817 | 15 | 206 | 6.4 | 8.0 | 0.00 | 0.00 | 0.00 | 80 | 1013.6 |
| 20260504182314 | 15 | 208 | 6.4 | 9.7 | 0.00 | 0.00 | 0.00 | 80 | 1013.5 |
| 20260504181810 | 15 | 236 | 6.4 | 9.7 | 0.00 | 0.00 | 0.00 | 80 | 1013.4 |
| 20260504181308 | 15 | 152 | 1.6 | 9.7 | 0.00 | 0.00 | 0.00 | 81 | 1013.6 |
| 20260504180807 | 15 | 285 | 4.8 | 9.7 | 0.00 | 0.00 | 0.00 | 81 | 1013.6 |
| 20260504180305 | 15 | 149 | 0.0 | 3.2 | 0.00 | 0.00 | 0.00 | 81 | 1013.6 |
| 20260504175803 | 15 | 141 | 4.8 | 8.0 | 0.00 | 0.00 | 0.00 | 83 | 1013.4 |
| 20260504175259 | 15 | 173 | 4.8 | 9.7 | 0.00 | 0.00 | 0.00 | 83 | 1013.6 |
| 20260504174757 | 14 | 205 | 1.6 | 9.7 | 0.00 | 0.00 | 0.00 | 84 | 1013.5 |
| 20260504174255 | 14 | 206 | 3.2 | 4.8 | 0.00 | 0.00 | 0.00 | 84 | 1013.5 |
| 20260504173751 | 14 | 118 | 1.6 | 4.8 | 0.00 | 0.00 | 0.00 | 84 | 1013.4 |
| 20260504173248 | 14 | 195 | 3.2 | 4.8 | 0.00 | 0.00 | 0.00 | 84 | 1013.4 |
| 20260504172745 | 14 | 89 | 3.2 | 9.7 | 0.00 | 0.00 | 0.00 | 84 | 1013.7 |
| 20260504172241 | 14 | 216 | 3.2 | 4.8 | 0.00 | 0.00 | 0.00 | 84 | 1013.4 |
| 20260504171737 | 13 | 114 | 1.6 | 8.0 | 0.00 | 0.00 | 0.00 | 86 | 1013.5 |
| 20260504171235 | 13 | 220 | 8.0 | 14.5 | 0.00 | 0.00 | 0.00 | 86 | 1013.6 |
| 20260504170732 | 13 | 221 | 6.4 | 12.9 | 0.00 | 0.00 | 0.00 | 86 | 1013.5 |
| 20260504170229 | 13 | 212 | 8.0 | 12.9 | 0.00 | 0.00 | 0.00 | 85 | 1013.4 |
| 20260504160147 | 13 | 207 | 4.8 | 11.3 | 0.00 | 0.00 | 0.00 | 88 | 1013.5 |
| 20260504151115 | 13 | 138 | 3.2 | 9.7 | 0.00 | 0.00 | 0.00 | 86 | 1013.1 |
| 20260504150613 | 13 | 197 | 6.4 | 9.7 | 0.00 | 0.00 | 0.00 | 86 | 1012.7 |
| 20260504150109 | 13 | 187 | 4.8 | 9.7 | 0.00 | 0.00 | 0.00 | 87 | 1012.8 |
| 20260504141038 | 12 | 194 | 6.4 | 11.3 | 0.00 | 0.00 | 0.00 | 88 | 1012.1 |
| 20260504140534 | 12 | 240 | 1.6 | 12.9 | 0.00 | 0.00 | 0.00 | 89 | 1012.2 |
| 20260504130459 | 13 | 66 | 3.2 | 9.7 | 0.00 | 0.00 | 0.00 | 87 | 1011.3 |
| 20260504110346 | 16 | 167 | 3.2 | 4.8 | 0.00 | 0.00 | 0.00 | 77 | 1009.3 |
| 20260504100303 | 17 | 153 | 0.0 | 0.0 | 0.00 | 0.00 | 0.00 | 69 | 1008.7 |
| 20260504081657 | 19 | 89 | 1.6 | 1.6 | 0.00 | 0.00 | 0.00 | 56 | 1008.0 |
| 20260504081153 | 20 | 69 | 0.0 | 1.6 | 0.00 | 0.00 | 0.00 | 56 | 1008.0 |
| 20260504080649 | 20 | 77 | 0.0 | 0.0 | 0.00 | 0.00 | 0.00 | 55 | 1008.0 |
| 20260504080146 | 20 | 81 | 0.0 | 0.0 | 0.00 | 0.00 | 0.00 | 55 | 1008.0 |